Regional Weather Roundup
Issued by NWS Nashville, TN

Home | Current Version | Previous Version | Text Only | Print | Product List | Glossary On
Versions: 1 2 3 4 5 6 7 8 9 10 11 12 13 14 15 16 17 18 19 20 21 22 23 24 25 26 27 28
000
ASUS44 KOHX 031110
RWROHX
MIDDLE TENNESSEE HOURLY WEATHER ROUNDUP
NATIONAL WEATHER SERVICE NASHVILLE TN
600 AM CDT TUE AUG 03 2021

NOTE: "FAIR" INDICATES FEW OR NO CLOUDS BELOW 12,000 FEET WITH
NO SIGNIFICANT WEATHER AND/OR OBSTRUCTIONS TO VISIBILITY.

* THESE REPORTS ARE NOT UNDER NWS QUALITY CONTROL AND MAY NOT
  REPORT WEATHER SUCH AS PRECIPITATION AND FOG.


TNZ005>011-023>034-057-059-062>066-078-080-031200
...NORTHERN MIDDLE TENNESSEE...

CITY           SKY/WX    TMP DP  RH WIND       PRES   REMARKS
CLARKSVILLE    PTCLDY    59  57  93 CALM      30.04R
CROSSVILLE     CLEAR     59  58  96 CALM      30.06R FOG
DICKSON        PTCLDY    59  57  94 CALM      30.03R
GALLATIN       PTCLDY    59  59 100 CALM      30.05R FOG
LEBANON        PTCLDY    59  59 100 CALM      30.00R
LIVINGSTON     CLOUDY    63  61  94 NE3       30.03S
NASHVILLE      CLEAR     63  58  83 CALM      30.03R
PORTLAND       CLEAR     57  57 100 CALM      30.03R
SMYRNA           N/A    N/A N/A N/A MISG        N/A
SPARTA         CLOUDY    61  61 100 CALM      30.03R
SPRINGFIELD    CLEAR     59  59 100 CALM      30.02S
WEST NASHVILLE CLEAR     61  59  94 CALM      30.01R
$$
TNZ056-058-060-061-075>077-079-093>097-031200
...SOUTHERN MIDDLE TENNESSEE...

CITY           SKY/WX    TMP DP  RH WIND       PRES   REMARKS
COLUMBIA       CLEAR     61  61 100 CALM      30.01R FOG
FAYETTEVILLE   CLEAR     63  63 100 NE5       30.03R
LAWRENCEBURG   PTCLDY    61  59  94 CALM      30.02S
LEWISBURG      CLEAR     59  59 100 CALM      30.02R
MCMINNVILLE    FOG       61  59  94 CALM      30.02S VSB 1/4
MURFREESBORO   PTCLDY    63  59  88 CALM      30.01R
PULASKI        CLEAR     61  61 100 CALM      30.01R
SHELBYVILLE    CLEAR     59  59 100 CALM      30.02R FOG
TULLAHOMA      CLEAR     61  59  94 CALM      30.01S
WINCHESTER     FOG       61  61 100 CALM      30.01S VSB 0
$$


...KEY TO REMARKS...
VSB - VISIBILITY IN MILES
WCI - WIND CHILL INDEX
HX  - HEAT INDEX




USA.gov is the U.S. government's official web portal to all federal, state and local government web resources and services.